Wind_Speed
17 17 18 19 20 21 23 25 26 27 28 30 30 30 31 31 32 32 32 33 28 20 19 22 26 28 30 30 29 29 27 29 31 33 34 33 33 32 33 32 31 31 32
13 15 16 17 19 21 22 23 24 26 28 29 30 31 31 31 31 29 29 31 33 25 22 19 20 24 29 32 31 31 31 30 30 31 33 35 36 35 35 35 35 35 35
15 17 18 19 20 22 23 24 26 27 29 30 31 31 33 33 31 30 29 30 32 29 24 19 16 18 23 28 31 31 30 32 33 31 31 32 34 36 38 38 37 37 37
15 17 18 19 21 22 23 25 26 27 29 31 32 33 33 33 31 29 28 28 29 27 26 26 20 17 18 22 26 31 33 30 31 33 34 33 33 34 36 38 40 41 41
18 19 21 22 22 22 24 25 26 28 30 32 33 34 34 34 33 30 29 28 28 28 25 25 27 25 22 17 18 22 30 33 32 30 32 34 36 37 37 38 39 41 42
19 20 21 22 22 23 24 26 27 29 30 32 35 37 35 36 35 33 30 27 28 29 29 28 26 27 25 27 25 22 22 25 30 35 32 33 36 38 39 40 41 40 41
21 22 22 23 25 25 25 26 27 29 32 33 35 37 39 38 38 36 34 31 31 29 30 31 31 29 30 30 32 35 32 29 28 29 34 36 34 38 41 41 44 43 41
26 27 28 27 27 28 27 27 28 30 34 35 36 38 37 38 38 37 34 34 33 31 32 33 35 33 32 33 34 35 36 38 37 36 34 36 39 37 36 39 41 45 49
27 29 32 33 35 33 31 30 30 32 35 38 39 40 42 40 38 39 37 35 35 36 36 38 37 37 37 36 37 39 41 42 43 43 43 44 44 44 44 42 42 43 47
27 30 32 34 36 39 38 35 32 32 34 38 40 42 46 47 48 38 38 39 37 38 38 40 41 39 40 42 45 45 44 44 45 45 47 50 51 51 51 51 49 48 48
28 29 31 33 38 40 43 39 35 34 36 39 41 44 47 50 51 50 42 41 40 42 42 43 45 44 45 46 48 48 48 50 51 52 56 58 58 58 59 60 58 55 52
28 31 33 35 37 40 46 46 37 35 36 39 42 44 46 48 50 52 52 49 44 43 42 45 47 49 50 50 51 52 52 53 58 62 60 61 63 66 68 67 63 61 61
29 31 34 36 38 42 44 49 44 40 39 40 43 46 49 53 54 54 55 54 49 45 42 44 47 50 52 54 55 54 57 62 62 63 69 70 71 71 71 72 71 67 65
30 31 33 36 39 40 43 47 47 46 45 45 47 51 53 56 57 57 57 58 55 49 45 45 50 56 57 57 57 61 62 65 67 70 75 77 77 76 75 75 74 71 66
30 32 34 36 39 41 43 45 47 50 51 47 48 55 59 60 59 58 56 55 56 52 47 49 52 56 59 59 60 65 68 70 75 79 80 79 77 72 72 73 74 70 61
31 34 36 37 40 43 43 46 48 51 53 52 52 57 61 62 62 62 58 56 57 58 54 53 56 59 60 63 66 65 70 76 78 81 80 73 64 63 57 51 52 61 72
33 36 38 39 41 44 46 48 50 53 55 58 58 60 65 66 65 63 59 58 58 59 59 55 58 61 62 63 63 70 73 75 78 77 68 57 52 52 50 48 52 55 50
34 37 40 41 42 45 47 50 52 55 58 60 62 63 66 67 68 65 61 60 61 61 61 60 60 62 62 65 69 75 77 76 72 57 43 40 41 43 47 46 47 49 46
36 38 40 43 44 47 49 52 55 57 60 62 64 66 68 69 69 68 65 62 62 61 62 61 60 63 64 69 72 72 71 66 54 40 40 44 48 48 47 47 44 41 46
39 40 42 45 46 48 51 54 57 61 63 66 67 69 70 72 72 69 65 64 63 62 61 62 61 62 64 70 70 69 61 49 40 44 46 48 47 46 49 46 42 41 43
41 42 45 47 48 50 53 56 60 64 66 68 72 72 72 72 72 70 67 64 63 61 61 63 62 63 66 70 70 59 48 38 38 39 39 43 43 43 43 39 35 37 39
43 45 46 50 51 52 56 59 62 66 69 71 73 75 74 74 73 70 67 62 61 63 63 64 67 73 74 72 58 46 38 35 34 36 38 39 40 38 37 30 28 31 37
46 48 49 52 53 54 58 62 64 69 72 74 76 76 73 73 74 70 66 61 61 64 66 67 70 75 72 65 52 39 35 32 32 34 36 35 36 35 35 33 35 32 33
50 51 53 55 55 57 61 65 67 70 74 76 77 76 75 73 74 71 66 63 62 65 66 70 73 71 61 47 41 38 32 32 33 34 38 36 37 35 36 32 34 35 32
53 53 56 58 59 61 64 68 70 73 75 79 79 76 75 73 73 69 66 63 62 64 68 71 75 71 54 42 40 35 35 36 36 35 40 40 39 37 37 36 35 37 33
57 57 59 61 62 64 68 71 72 75 77 79 77 77 76 74 73 66 63 61 62 65 69 75 75 61 47 41 37 37 38 40 40 39 42 43 42 42 37 35 37 30 31
Wind_Direction
42 36 30 25 20 16 11 9 7 5 3 3 360 358 356 355 355 354 354 353 347 344 326 320 319 318 313 306 302 300 296 295 295 291 286 282 279 278 278 276 272 271 271
24 19 12 8 2 0 357 355 353 355 355 352 353 353 351 348 346 344 347 346 344 340 340 320 318 316 314 312 309 303 299 295 293 292 290 287 284 281 278 275 273 271 268
7 4 358 355 353 349 348 345 344 345 344 342 345 346 345 345 341 341 341 341 343 338 332 328 320 315 313 313 314 309 302 297 294 294 292 291 287 284 281 277 274 273 271
353 350 350 350 349 346 342 340 339 339 337 335 338 338 339 338 337 336 336 335 336 328 324 324 320 324 317 312 310 312 315 309 299 294 293 290 288 287 286 282 278 274 272
348 346 346 343 341 341 341 337 333 332 332 333 336 334 335 333 333 332 329 326 326 326 318 317 311 316 321 314 306 306 306 311 312 304 296 291 290 287 286 285 283 279 272
356 352 347 343 339 336 333 328 326 326 327 330 332 330 332 331 330 328 321 317 319 320 315 311 310 305 306 310 308 300 298 299 308 309 305 298 291 288 285 282 282 280 278
4 358 350 342 335 331 329 330 329 327 324 328 329 331 331 331 328 325 320 315 314 313 312 310 307 303 299 297 299 302 303 303 293 302 304 305 299 294 286 282 278 279 274
16 12 9 1 351 343 334 327 326 327 326 330 330 331 332 330 329 324 318 312 309 307 305 306 302 300 301 299 295 296 297 299 298 294 291 292 294 291 290 287 280 277 276
21 18 13 9 5 357 346 336 327 325 326 325 326 326 327 330 330 325 318 309 305 301 300 300 302 299 300 299 297 295 294 293 292 292 292 291 289 285 283 280 278 277 273
12 9 7 5 2 359 353 342 332 327 326 326 326 327 327 326 328 329 319 311 306 301 297 293 294 298 299 297 296 293 292 291 288 286 286 285 284 284 283 279 273 269 269
2 2 359 357 356 358 360 351 341 337 333 330 328 327 326 326 327 328 329 315 311 306 304 298 292 291 294 295 296 292 294 294 294 292 289 285 282 281 280 278 274 271 267
356 355 354 352 350 353 357 356 347 339 334 332 332 332 328 325 327 328 329 326 320 307 304 299 296 295 296 296 294 293 292 292 294 294 291 287 284 280 277 275 273 269 267
350 350 346 344 345 350 352 352 349 341 337 334 333 330 328 326 327 327 327 326 325 315 307 300 298 296 296 297 296 296 297 296 294 295 293 291 286 281 276 273 273 270 265
340 342 340 339 339 341 344 346 346 343 337 334 329 328 327 325 328 328 327 327 327 317 312 306 303 301 301 300 300 301 298 296 296 295 293 291 287 280 275 272 269 268 266
332 334 333 335 337 337 339 339 341 342 338 332 331 329 330 330 332 330 326 323 322 320 314 307 305 302 302 303 301 298 300 300 298 297 294 290 286 283 278 274 269 268 268
325 327 329 331 333 334 333 334 336 335 336 333 331 330 329 331 334 332 328 321 317 315 317 311 309 307 307 304 302 303 302 301 298 296 294 292 288 286 281 274 276 272 265
319 322 324 328 328 329 330 330 332 332 330 331 330 329 331 333 334 333 326 320 317 315 316 315 312 309 308 306 305 306 305 301 299 296 295 295 291 289 287 285 269 276 270
315 318 320 323 323 324 327 328 327 328 328 327 328 329 329 332 334 331 326 321 318 317 317 317 314 311 310 307 307 304 303 302 301 298 299 301 300 295 288 284 282 275 262
312 315 316 318 320 322 324 325 325 324 325 325 325 327 329 330 330 331 327 322 319 318 318 318 317 312 312 308 307 307 305 303 300 301 300 299 297 296 292 284 277 272 275
309 312 314 317 318 320 322 321 322 322 322 323 325 326 328 329 330 329 327 323 321 321 320 319 319 316 314 313 313 310 307 302 300 299 297 296 296 295 292 285 276 278 272
308 310 313 316 316 317 318 319 320 321 321 322 324 326 328 329 330 330 327 324 323 322 322 319 317 316 317 319 318 311 306 302 301 299 300 303 304 299 290 288 273 271 277
306 308 312 314 314 315 317 316 317 319 319 321 322 325 327 329 330 328 325 325 324 324 322 318 318 319 322 321 315 309 305 299 300 303 302 305 306 306 297 280 281 280 279
305 308 311 312 312 313 315 314 315 318 319 320 321 324 328 328 329 326 326 327 326 324 322 320 322 324 325 321 316 307 304 305 308 309 310 309 306 304 307 287 271 272 280
305 307 309 311 311 311 312 313 314 316 318 319 320 324 327 327 327 325 324 328 327 325 322 323 325 327 324 315 310 307 304 308 313 318 320 320 311 310 303 302 272 265 273
304 305 307 310 310 310 311 312 313 315 317 318 321 325 325 326 325 324 325 329 327 323 324 326 329 329 321 312 307 302 304 309 311 316 319 319 314 310 311 303 297 267 267
302 304 306 308 308 308 309 311 312 313 316 318 321 323 324 325 323 322 326 327 325 324 324 328 331 326 315 310 306 307 310 314 314 315 317 316 315 311 310 301 300 280 262
Height
5910 5908 5907 5906 5904 5902 5900 5898 5896 5894 5892 5890 5887 5885 5881 5877 5874 5871 5868 5864 5860 5856 5852 5849 5844 5841 5838 5834 5831 5829 5826 5824 5822 5820 5819 5818 5816 5816 5815 5814 5812 5812 5811
5910 5910 5908 5907 5905 5902 5900 5898 5896 5893 5890 5888 5886 5882 5879 5876 5872 5868 5864 5860 5856 5852 5848 5844 5840 5836 5832 5828 5826 5823 5820 5818 5815 5813 5811 5810 5808 5807 5806 5806 5805 5804 5803
5911 5910 5909 5907 5905 5903 5900 5897 5895 5892 5889 5886 5883 5880 5877 5873 5869 5865 5861 5856 5851 5847 5843 5839 5834 5831 5827 5822 5819 5816 5813 5811 5808 5806 5804 5802 5800 5799 5798 5796 5795 5795 5794
5911 5909 5908 5906 5904 5901 5899 5896 5893 5890 5887 5883 5881 5877 5874 5870 5864 5860 5857 5852 5847 5842 5837 5833 5829 5824 5821 5818 5814 5810 5807 5804 5802 5799 5796 5793 5791 5790 5788 5787 5786 5785 5784
5910 5908 5906 5904 5901 5899 5896 5893 5890 5887 5884 5881 5877 5873 5869 5864 5859 5855 5852 5847 5842 5837 5832 5827 5822 5819 5815 5811 5808 5805 5801 5797 5793 5791 5788 5785 5783 5781 5779 5777 5775 5774 5773
5908 5906 5904 5902 5899 5896 5893 5890 5886 5883 5880 5876 5872 5868 5864 5859 5854 5850 5845 5841 5837 5832 5827 5821 5817 5812 5808 5804 5800 5797 5793 5789 5786 5783 5780 5777 5774 5771 5769 5766 5764 5763 5761
5906 5903 5901 5898 5895 5893 5890 5886 5882 5879 5874 5873 5868 5863 5858 5853 5848 5843 5838 5835 5831 5826 5820 5815 5810 5805 5800 5796 5792 5789 5785 5782 5779 5774 5771 5767 5765 5762 5758 5755 5753 5751 5750
5904 5901 5898 5895 5892 5889 5885 5882 5878 5875 5870 5868 5864 5859 5853 5847 5842 5836 5831 5826 5821 5818 5813 5809 5802 5797 5792 5788 5783 5778 5775 5772 5769 5766 5762 5758 5754 5750 5748 5746 5743 5740 5739
5904 5900 5897 5894 5889 5885 5881 5877 5873 5870 5866 5861 5857 5853 5848 5844 5839 5830 5824 5821 5816 5811 5806 5800 5794 5789 5784 5780 5775 5771 5767 5762 5757 5754 5751 5747 5743 5740 5736 5733 5730 5728 5726
5902 5899 5896 5892 5888 5882 5877 5872 5868 5864 5860 5855 5850 5846 5840 5835 5831 5828 5818 5812 5809 5803 5799 5792 5786 5781 5776 5771 5766 5760 5756 5752 5747 5743 5738 5734 5730 5727 5723 5720 5715 5712 5711
5899 5896 5892 5888 5884 5879 5874 5868 5863 5859 5854 5850 5845 5839 5834 5827 5821 5816 5814 5804 5799 5793 5789 5782 5775 5770 5765 5759 5754 5749 5745 5740 5735 5731 5726 5720 5715 5711 5708 5704 5701 5698 5696
5896 5893 5889 5885 5881 5876 5870 5864 5859 5854 5849 5844 5838 5832 5826 5818 5813 5807 5802 5796 5791 5783 5779 5770 5763 5757 5751 5747 5741 5735 5731 5725 5720 5714 5709 5703 5698 5692 5687 5684 5682 5681 5678
5893 5889 5885 5880 5876 5871 5866 5860 5855 5850 5844 5838 5832 5826 5818 5810 5805 5797 5791 5784 5780 5775 5767 5759 5753 5745 5739 5733 5727 5721 5715 5708 5702 5695 5688 5683 5677 5672 5667 5664 5661 5660 5659
5889 5885 5881 5876 5871 5866 5861 5855 5849 5843 5837 5831 5824 5818 5811 5803 5796 5788 5780 5774 5769 5761 5758 5750 5740 5731 5724 5719 5711 5704 5697 5688 5683 5676 5669 5660 5652 5644 5641 5639 5636 5636 5638
5884 5880 5876 5872 5867 5861 5855 5849 5843 5837 5830 5823 5816 5810 5802 5794 5786 5777 5768 5761 5752 5749 5748 5739 5730 5719 5710 5702 5694 5687 5680 5670 5660 5652 5644 5635 5626 5619 5615 5614 5613 5613 5613
5878 5874 5869 5865 5860 5854 5849 5844 5837 5830 5822 5815 5808 5800 5791 5784 5775 5765 5757 5748 5739 5731 5729 5723 5716 5706 5697 5689 5679 5671 5661 5650 5637 5625 5616 5609 5602 5597 5593 5592 5592 5591 5593
5872 5868 5863 5858 5853 5848 5842 5836 5829 5823 5815 5807 5799 5791 5781 5773 5764 5755 5745 5736 5727 5717 5713 5711 5700 5690 5682 5671 5661 5653 5641 5630 5617 5603 5595 5588 5584 5579 5576 5575 5574 5573 5573
5865 5860 5855 5851 5846 5841 5835 5828 5821 5814 5806 5798 5789 5780 5770 5762 5753 5743 5733 5724 5714 5705 5698 5695 5687 5676 5665 5655 5646 5634 5619 5605 5595 5587 5580 5576 5571 5566 5562 5560 5559 5556 5556
5857 5852 5848 5843 5838 5832 5826 5819 5812 5804 5796 5787 5778 5770 5760 5751 5741 5730 5721 5711 5701 5692 5683 5676 5671 5659 5651 5637 5626 5613 5601 5588 5577 5573 5568 5564 5558 5553 5548 5545 5544 5542 5542
5849 5844 5839 5834 5829 5824 5818 5810 5802 5794 5785 5776 5767 5757 5748 5738 5729 5719 5709 5699 5689 5680 5670 5661 5654 5644 5632 5618 5607 5595 5585 5572 5567 5561 5555 5550 5545 5539 5533 5529 5529 5530 5527
5839 5834 5829 5824 5819 5813 5807 5800 5791 5783 5775 5765 5755 5745 5736 5725 5715 5705 5695 5685 5675 5665 5657 5649 5641 5629 5617 5604 5590 5578 5568 5563 5556 5548 5544 5538 5532 5525 5520 5517 5516 5517 5515
5828 5824 5820 5815 5809 5802 5796 5788 5780 5773 5763 5754 5744 5734 5723 5712 5701 5691 5679 5669 5660 5651 5642 5630 5620 5610 5598 5585 5573 5564 5558 5552 5548 5539 5534 5529 5521 5515 5509 5507 5507 5506 5505
5818 5814 5810 5804 5798 5792 5785 5776 5769 5761 5751 5741 5732 5722 5712 5700 5690 5679 5667 5658 5647 5635 5626 5618 5606 5590 5579 5566 5560 5553 5548 5544 5538 5531 5526 5522 5512 5507 5500 5496 5495 5495 5495
5808 5803 5798 5792 5786 5780 5773 5765 5757 5748 5738 5728 5719 5709 5699 5688 5677 5668 5657 5646 5635 5624 5614 5602 5590 5575 5562 5554 5547 5543 5539 5536 5531 5523 5515 5512 5504 5499 5493 5487 5484 5484 5485
5797 5792 5786 5780 5774 5767 5761 5752 5744 5735 5726 5714 5705 5694 5686 5676 5665 5655 5645 5635 5623 5610 5599 5588 5574 5562 5550 5543 5538 5534 5529 5526 5521 5515 5507 5502 5496 5490 5485 5478 5473 5472 5474
5785 5780 5773 5768 5761 5754 5747 5739 5731 5722 5712 5702 5690 5680 5671 5662 5652 5640 5631 5621 5611 5600 5588 5573 5559 5546 5538 5532 5527 5522 5518 5515 5510 5505 5498 5492 5486 5479 5476 5471 5463 5461 5463